Time,TemperatureF,DewpointF,PressureIn,WindDirection,WindDirectionDegrees,WindSpeedMPH,WindSpeedGustMPH,Humidity,HourlyPrecipIn,Conditions,Clouds,dailyrainin,SolarRadiationWatts/m^2,SoftwareType,DateUTC
2016-12-07 00:02:00,64.0,61.0,29.86,West,265,4.0,10.0,90,0.00,,,0.00,0,Wunderground v.1.15,2016-12-07 05:02:00,
2016-12-07 00:08:00,63.9,60.9,29.86,West,275,5.0,10.0,90,0.00,,,0.00,0,Wunderground v.1.15,2016-12-07 05:08:00,
2016-12-07 00:13:00,63.7,60.7,29.86,WSW,258,5.0,6.0,90,0.00,,,0.00,0,Wunderground v.1.15,2016-12-07 05:13:00,
2016-12-07 00:19:00,63.6,60.9,29.86,West,261,5.0,6.0,91,0.00,,,0.00,0,Wunderground v.1.15,2016-12-07 05:19:00,
2016-12-07 00:24:00,63.5,60.8,29.86,West,273,4.0,5.0,91,0.00,,,0.00,0,Wunderground v.1.15,2016-12-07 05:24:00,
2016-12-07 00:29:00,63.4,60.7,29.86,WSW,258,4.0,5.0,91,0.00,,,0.00,0,Wunderground v.1.15,2016-12-07 05:29:00,
2016-12-07 00:34:00,63.3,60.6,29.87,WSW,257,3.0,4.0,91,0.00,,,0.00,0,Wunderground v.1.15,2016-12-07 05:34:00,
2016-12-07 00:40:00,63.2,60.5,29.87,West,265,3.0,4.0,91,0.00,,,0.00,0,Wunderground v.1.15,2016-12-07 05:40:00,
2016-12-07 00:45:00,63.2,60.5,29.87,West,274,3.0,4.0,91,0.00,,,0.00,0,Wunderground v.1.15,2016-12-07 05:45:00,
2016-12-07 00:50:00,63.1,60.7,29.87,West,279,4.0,4.0,92,0.00,,,0.00,0,Wunderground v.1.15,2016-12-07 05:50:00,
2016-12-07 00:55:00,63.0,60.6,29.87,West,267,4.0,5.0,92,0.00,,,0.00,0,Wunderground v.1.15,2016-12-07 05:55:00,
2016-12-07 01:01:00,63.0,60.6,29.86,WNW,287,4.0,8.0,92,0.00,,,0.00,0,Wunderground v.1.15,2016-12-07 06:01:00,
2016-12-07 01:07:00,63.0,60.6,29.86,West,270,4.0,8.0,92,0.00,,,0.00,0,Wunderground v.1.15,2016-12-07 06:07:00,
2016-12-07 01:13:00,63.0,60.6,29.86,West,261,4.0,4.0,92,0.00,,,0.01,0,Wunderground v.1.15,2016-12-07 06:13:00,
2016-12-07 01:18:00,63.0,60.6,29.87,WNW,298,4.0,6.0,92,0.00,,,0.01,0,Wunderground v.1.15,2016-12-07 06:18:00,
2016-12-07 01:23:00,62.9,60.5,29.87,West,275,4.0,6.0,92,0.00,,,0.01,0,Wunderground v.1.15,2016-12-07 06:23:00,
2016-12-07 01:29:00,62.9,60.5,29.87,West,264,4.0,6.0,92,0.00,,,0.01,0,Wunderground v.1.15,2016-12-07 06:29:00,
2016-12-07 01:34:00,62.7,60.3,29.87,WSW,257,4.0,4.0,92,0.00,,,0.01,0,Wunderground v.1.15,2016-12-07 06:34:00,
2016-12-07 01:40:00,62.7,60.3,29.87,West,279,3.0,4.0,92,0.00,,,0.01,0,Wunderground v.1.15,2016-12-07 06:40:00,
2016-12-07 01:45:00,62.6,60.5,29.88,West,279,3.0,5.0,93,0.00,,,0.01,0,Wunderground v.1.15,2016-12-07 06:45:00,
2016-12-07 01:51:00,62.6,60.5,29.88,WNW,295,4.0,4.0,93,0.00,,,0.01,0,Wunderground v.1.15,2016-12-07 06:51:00,
2016-12-07 01:56:00,62.6,60.5,29.88,WNW,286,4.0,4.0,93,0.00,,,0.01,0,Wunderground v.1.15,2016-12-07 06:56:00,
2016-12-07 02:02:00,62.7,60.6,29.88,WNW,292,4.0,7.0,93,0.00,,,0.01,0,Wunderground v.1.15,2016-12-07 07:02:00,
2016-12-07 02:08:00,62.6,60.5,29.88,West,268,4.0,7.0,93,0.00,,,0.01,0,Wunderground v.1.15,2016-12-07 07:08:00,
2016-12-07 02:13:00,62.6,60.5,29.88,WNW,292,4.0,4.0,93,0.00,,,0.01,0,Wunderground v.1.15,2016-12-07 07:13:00,
2016-12-07 02:18:00,62.6,60.5,29.88,WNW,288,4.0,5.0,93,0.00,,,0.01,0,Wunderground v.1.15,2016-12-07 07:18:00,
2016-12-07 02:24:00,62.6,60.5,29.88,NW,306,4.0,5.0,93,0.00,,,0.01,0,Wunderground v.1.15,2016-12-07 07:24:00,
2016-12-07 02:29:00,62.5,60.4,29.88,WNW,300,4.0,7.0,93,0.00,,,0.01,0,Wunderground v.1.15,2016-12-07 07:29:00,
2016-12-07 02:35:00,62.5,60.4,29.88,WNW,286,5.0,5.0,93,0.00,,,0.01,0,Wunderground v.1.15,2016-12-07 07:35:00,
2016-12-07 02:40:00,62.4,60.3,29.88,West,272,5.0,5.0,93,0.00,,,0.01,0,Wunderground v.1.15,2016-12-07 07:40:00,
2016-12-07 02:45:00,62.3,60.2,29.89,WNW,284,5.0,5.0,93,0.00,,,0.01,0,Wunderground v.1.15,2016-12-07 07:45:00,
2016-12-07 02:51:00,62.3,60.2,29.89,WNW,292,5.0,5.0,93,0.00,,,0.01,0,Wunderground v.1.15,2016-12-07 07:51:00,
2016-12-07 02:56:00,62.2,60.2,29.89,WNW,299,5.0,7.0,93,0.00,,,0.01,0,Wunderground v.1.15,2016-12-07 07:56:00,
2016-12-07 03:01:00,62.1,60.1,29.89,WNW,286,5.0,6.0,93,0.00,,,0.01,0,Wunderground v.1.15,2016-12-07 08:01:00,
2016-12-07 03:07:00,62.1,60.1,29.89,WNW,290,4.0,6.0,93,0.00,,,0.01,0,Wunderground v.1.15,2016-12-07 08:07:00,
2016-12-07 03:15:00,62.2,60.2,29.89,NW,304,4.0,5.0,93,0.00,,,0.01,0,Wunderground v.1.15,2016-12-07 08:15:00,
2016-12-07 03:21:00,62.1,60.1,29.89,WNW,290,4.0,5.0,93,0.00,,,0.01,0,Wunderground v.1.15,2016-12-07 08:21:00,
2016-12-07 03:27:00,62.1,60.1,29.89,NW,304,4.0,6.0,93,0.00,,,0.01,0,Wunderground v.1.15,2016-12-07 08:27:00,
2016-12-07 03:32:00,62.0,60.0,29.89,NW,313,5.0,7.0,93,0.00,,,0.01,0,Wunderground v.1.15,2016-12-07 08:32:00,
2016-12-07 03:38:00,62.0,60.0,29.89,NW,309,5.0,7.0,93,0.00,,,0.01,0,Wunderground v.1.15,2016-12-07 08:38:00,
2016-12-07 03:43:00,61.9,59.9,29.89,NW,325,4.0,6.0,93,0.00,,,0.01,0,Wunderground v.1.15,2016-12-07 08:43:00,
2016-12-07 03:50:00,61.9,59.9,29.90,NW,316,4.0,4.0,93,0.00,,,0.01,0,Wunderground v.1.15,2016-12-07 08:50:00,
2016-12-07 03:55:00,61.9,59.9,29.90,NW,321,4.0,5.0,93,0.00,,,0.02,0,Wunderground v.1.15,2016-12-07 08:55:00,
2016-12-07 04:00:00,61.8,59.8,29.91,WNW,288,4.0,4.0,93,0.00,,,0.02,0,Wunderground v.1.15,2016-12-07 09:00:00,
2016-12-07 04:05:00,61.8,59.8,29.91,NW,320,4.0,7.0,93,0.00,,,0.02,0,Wunderground v.1.15,2016-12-07 09:05:00,
2016-12-07 04:11:00,61.8,59.8,29.91,WNW,302,4.0,4.0,93,0.00,,,0.02,0,Wunderground v.1.15,2016-12-07 09:11:00,
2016-12-07 04:16:00,61.8,59.8,29.90,WNW,303,4.0,5.0,93,0.00,,,0.02,0,Wunderground v.1.15,2016-12-07 09:16:00,
2016-12-07 04:21:00,61.7,59.4,29.90,WNW,300,4.0,4.0,92,0.00,,,0.02,0,Wunderground v.1.15,2016-12-07 09:21:00,
2016-12-07 04:27:00,61.7,59.4,29.90,NW,322,4.0,4.0,92,0.00,,,0.03,0,Wunderground v.1.15,2016-12-07 09:27:00,
2016-12-07 04:32:00,61.7,59.4,29.90,NNW,327,3.0,6.0,92,0.00,,,0.03,0,Wunderground v.1.15,2016-12-07 09:32:00,
2016-12-07 04:38:00,61.6,59.3,29.90,NNW,337,4.0,6.0,92,0.00,,,0.03,0,Wunderground v.1.15,2016-12-07 09:38:00,
2016-12-07 04:43:00,61.6,59.3,29.90,NNW,338,4.0,5.0,92,0.00,,,0.03,0,Wunderground v.1.15,2016-12-07 09:43:00,
2016-12-07 04:49:00,61.6,59.3,29.90,NNW,331,3.0,5.0,92,0.00,,,0.04,0,Wunderground v.1.15,2016-12-07 09:49:00,
2016-12-07 04:54:00,61.5,59.2,29.90,NW,325,3.0,5.0,92,0.00,,,0.04,0,Wunderground v.1.15,2016-12-07 09:54:00,
2016-12-07 04:59:00,61.4,59.1,29.90,NW,320,3.0,5.0,92,0.00,,,0.04,0,Wunderground v.1.15,2016-12-07 09:59:00,
2016-12-07 05:05:00,61.4,59.1,29.91,WNW,301,3.0,7.0,92,0.00,,,0.04,0,Wunderground v.1.15,2016-12-07 10:05:00,
2016-12-07 05:11:00,61.5,59.5,29.91,NW,304,4.0,5.0,93,0.00,,,0.04,0,Wunderground v.1.15,2016-12-07 10:11:00,
2016-12-07 05:16:00,61.5,59.2,29.91,WNW,283,4.0,5.0,92,0.00,,,0.05,0,Wunderground v.1.15,2016-12-07 10:16:00,
2016-12-07 05:21:00,61.4,59.1,29.91,WNW,283,3.0,3.0,92,0.00,,,0.05,0,Wunderground v.1.15,2016-12-07 10:21:00,
2016-12-07 05:27:00,61.4,59.1,29.91,West,280,3.0,5.0,92,0.00,,,0.05,0,Wunderground v.1.15,2016-12-07 10:27:00,
2016-12-07 05:38:00,61.3,59.0,29.91,West,270,3.0,4.0,92,0.00,,,0.06,0,Wunderground v.1.15,2016-12-07 10:38:00,
2016-12-07 05:43:00,61.3,58.7,29.91,West,275,3.0,3.0,91,0.00,,,0.06,0,Wunderground v.1.15,2016-12-07 10:43:00,
2016-12-07 05:48:00,61.2,58.6,29.92,West,280,3.0,4.0,91,0.00,,,0.06,0,Wunderground v.1.15,2016-12-07 10:48:00,
2016-12-07 05:54:00,61.2,58.9,29.92,WNW,295,4.0,4.0,92,0.00,,,0.06,0,Wunderground v.1.15,2016-12-07 10:54:00,
2016-12-07 05:59:00,61.2,58.9,29.92,WNW,284,4.0,5.0,92,0.00,,,0.06,0,Wunderground v.1.15,2016-12-07 10:59:00,
2016-12-07 06:04:00,61.1,58.8,29.92,West,263,3.0,6.0,92,0.00,,,0.06,0,Wunderground v.1.15,2016-12-07 11:04:00,
2016-12-07 06:10:00,61.0,58.4,29.92,West,273,3.0,3.0,91,0.00,,,0.07,0,Wunderground v.1.15,2016-12-07 11:10:00,
2016-12-07 06:15:00,60.9,58.6,29.93,WNW,286,3.0,4.0,92,0.00,,,0.07,0,Wunderground v.1.15,2016-12-07 11:15:00,
2016-12-07 06:20:00,60.9,58.6,29.93,West,274,3.0,3.0,92,0.00,,,0.07,0,Wunderground v.1.15,2016-12-07 11:20:00,
2016-12-07 06:26:00,60.8,58.5,29.93,West,261,2.0,3.0,92,0.00,,,0.07,0,Wunderground v.1.15,2016-12-07 11:26:00,
2016-12-07 06:31:00,60.7,58.4,29.93,West,263,2.0,2.0,92,0.00,,,0.08,0,Wunderground v.1.15,2016-12-07 11:31:00,
2016-12-07 06:36:00,60.6,58.3,29.93,West,259,2.0,4.0,92,0.00,,,0.08,0,Wunderground v.1.15,2016-12-07 11:36:00,
2016-12-07 06:42:00,60.6,58.3,29.93,West,261,3.0,4.0,92,0.00,,,0.08,0,Wunderground v.1.15,2016-12-07 11:42:00,
2016-12-07 06:47:00,60.6,58.3,29.94,West,274,3.0,4.0,92,0.00,,,0.08,0,Wunderground v.1.15,2016-12-07 11:47:00,
2016-12-07 06:52:00,60.6,58.6,29.94,West,270,2.0,3.0,93,0.00,,,0.08,0,Wunderground v.1.15,2016-12-07 11:52:00,
2016-12-07 06:57:00,60.6,58.6,29.94,West,259,3.0,4.0,93,0.00,,,0.09,0,Wunderground v.1.15,2016-12-07 11:57:00,
2016-12-07 07:02:00,60.5,58.5,29.95,West,269,3.0,5.0,93,0.00,,,0.09,0,Wunderground v.1.15,2016-12-07 12:02:00,
2016-12-07 07:08:00,60.4,58.1,29.95,West,262,3.0,5.0,92,0.00,,,0.09,0,Wunderground v.1.15,2016-12-07 12:08:00,
2016-12-07 07:13:00,60.3,58.0,29.95,WNW,284,3.0,3.0,92,0.00,,,0.09,5,Wunderground v.1.15,2016-12-07 12:13:00,
2016-12-07 07:19:00,60.3,58.3,29.95,West,259,3.0,3.0,93,0.00,,,0.09,11,Wunderground v.1.15,2016-12-07 12:19:00,
2016-12-07 07:29:00,60.0,58.0,29.95,West,274,3.0,3.0,93,0.00,,,0.10,19,Wunderground v.1.15,2016-12-07 12:29:00,
2016-12-07 07:35:00,60.0,58.0,29.96,West,277,3.0,3.0,93,0.00,,,0.10,23,Wunderground v.1.15,2016-12-07 12:35:00,
2016-12-07 07:40:00,59.9,57.9,29.96,West,265,2.0,3.0,93,0.00,,,0.10,25,Wunderground v.1.15,2016-12-07 12:40:00,
2016-12-07 07:46:00,59.8,57.8,29.96,WSW,255,2.0,4.0,93,0.00,,,0.10,26,Wunderground v.1.15,2016-12-07 12:46:00,
2016-12-07 07:51:00,59.9,58.2,29.96,WNW,289,3.0,4.0,94,0.00,,,0.11,28,Wunderground v.1.15,2016-12-07 12:51:00,
2016-12-07 07:56:00,59.9,58.2,29.96,West,280,3.0,4.0,94,0.17,,,0.41,35,Wunderground v.1.15,2016-12-07 12:56:00,
2016-12-07 08:02:00,59.9,57.9,29.97,WNW,292,3.0,5.0,93,0.06,,,0.41,40,Wunderground v.1.15,2016-12-07 13:02:00,
2016-12-07 08:08:00,59.9,57.9,29.97,NW,309,3.0,5.0,93,0.04,,,0.41,53,Wunderground v.1.15,2016-12-07 13:08:00,
2016-12-07 08:13:00,60.0,58.0,29.97,WNW,298,4.0,5.0,93,0.00,,,0.41,47,Wunderground v.1.15,2016-12-07 13:13:00,
2016-12-07 08:19:00,60.0,58.0,29.98,WNW,303,5.0,6.0,93,0.00,,,0.41,65,Wunderground v.1.15,2016-12-07 13:19:00,
2016-12-07 08:24:00,60.0,58.0,29.98,NW,317,5.0,6.0,93,0.00,,,0.41,91,Wunderground v.1.15,2016-12-07 13:24:00,
2016-12-07 08:29:00,60.1,58.1,29.98,NW,317,5.0,6.0,93,0.00,,,0.41,107,Wunderground v.1.15,2016-12-07 13:29:00,
2016-12-07 08:34:00,60.3,58.3,29.98,NW,309,4.0,5.0,93,0.00,,,0.41,109,Wunderground v.1.15,2016-12-07 13:34:00,
2016-12-07 08:40:00,60.5,58.5,29.98,NW,319,4.0,4.0,93,0.00,,,0.41,118,Wunderground v.1.15,2016-12-07 13:40:00,
2016-12-07 08:45:00,60.5,58.2,29.99,NW,320,4.0,6.0,92,0.00,,,0.41,274,Wunderground v.1.15,2016-12-07 13:45:00,
2016-12-07 08:50:00,60.5,58.2,29.99,NW,321,4.0,6.0,92,0.00,,,0.41,104,Wunderground v.1.15,2016-12-07 13:50:00,
2016-12-07 08:56:00,60.6,58.0,29.99,NW,310,5.0,6.0,91,0.00,,,0.41,179,Wunderground v.1.15,2016-12-07 13:56:00,
2016-12-07 09:01:00,60.7,58.1,29.99,NW,312,5.0,5.0,91,0.00,,,0.41,330,Wunderground v.1.15,2016-12-07 14:01:00,
2016-12-07 09:07:00,61.1,58.8,29.99,NW,311,3.0,5.0,92,0.00,,,0.41,353,Wunderground v.1.15,2016-12-07 14:07:00,
2016-12-07 09:13:00,61.2,58.6,29.99,NW,319,4.0,6.0,91,0.00,,,0.41,206,Wunderground v.1.15,2016-12-07 14:13:00,
2016-12-07 09:18:00,61.4,58.7,29.99,NW,315,5.0,6.0,91,0.00,,,0.41,244,Wunderground v.1.15,2016-12-07 14:18:00,
2016-12-07 09:24:00,61.6,58.9,29.99,NW,325,5.0,5.0,91,0.00,,,0.41,104,Wunderground v.1.15,2016-12-07 14:24:00,
2016-12-07 09:29:00,61.7,58.7,29.99,NW,321,5.0,6.0,90,0.00,,,0.41,236,Wunderground v.1.15,2016-12-07 14:29:00,
2016-12-07 09:34:00,61.6,58.3,30.00,NW,313,4.0,5.0,89,0.00,,,0.41,236,Wunderground v.1.15,2016-12-07 14:34:00,
2016-12-07 09:40:00,61.7,58.4,30.00,NNW,345,4.0,4.0,89,0.00,,,0.41,204,Wunderground v.1.15,2016-12-07 14:40:00,
2016-12-07 09:50:00,61.9,58.6,30.00,North,355,3.0,5.0,89,0.00,,,0.41,125,Wunderground v.1.15,2016-12-07 14:50:00,
2016-12-07 09:56:00,62.1,58.8,30.00,NW,309,4.0,5.0,89,0.00,,,0.41,227,Wunderground v.1.15,2016-12-07 14:56:00,
2016-12-07 10:01:00,62.1,58.8,30.00,NW,309,4.0,5.0,89,0.00,,,0.41,127,Wunderground v.1.15,2016-12-07 15:01:00,
2016-12-07 10:07:00,62.1,58.8,30.00,NW,323,4.0,7.0,89,0.00,,,0.41,223,Wunderground v.1.15,2016-12-07 15:07:00,
2016-12-07 10:12:00,62.2,58.9,30.00,NNW,346,4.0,5.0,89,0.00,,,0.41,109,Wunderground v.1.15,2016-12-07 15:12:00,
2016-12-07 10:17:00,62.2,58.6,30.00,North,351,4.0,5.0,88,0.00,,,0.41,158,Wunderground v.1.15,2016-12-07 15:17:00,
2016-12-07 10:22:00,62.5,59.2,30.00,NW,322,4.0,6.0,89,0.00,,,0.41,424,Wunderground v.1.15,2016-12-07 15:22:00,
2016-12-07 10:28:00,62.7,58.8,30.00,NW,311,4.0,6.0,87,0.00,,,0.41,193,Wunderground v.1.15,2016-12-07 15:28:00,
2016-12-07 10:33:00,63.0,59.1,30.00,WNW,300,4.0,5.0,87,0.00,,,0.41,392,Wunderground v.1.15,2016-12-07 15:33:00,
2016-12-07 10:38:00,63.1,58.5,30.00,NW,307,5.0,8.0,85,0.00,,,0.41,318,Wunderground v.1.15,2016-12-07 15:38:00,
2016-12-07 10:44:00,63.2,58.9,30.00,WNW,302,6.0,7.0,86,0.00,,,0.41,315,Wunderground v.1.15,2016-12-07 15:44:00,
2016-12-07 10:49:00,63.5,58.9,30.00,NW,321,5.0,7.0,85,0.00,,,0.41,359,Wunderground v.1.15,2016-12-07 15:49:00,
2016-12-07 10:54:00,63.7,59.1,30.00,NW,307,5.0,5.0,85,0.00,,,0.41,538,Wunderground v.1.15,2016-12-07 15:54:00,
2016-12-07 11:00:00,63.8,59.2,30.00,WNW,300,5.0,5.0,85,0.00,,,0.41,613,Wunderground v.1.15,2016-12-07 16:00:00,
2016-12-07 11:05:00,63.9,59.3,30.00,WNW,298,4.0,7.0,85,0.00,,,0.41,636,Wunderground v.1.15,2016-12-07 16:05:00,
2016-12-07 11:11:00,64.0,59.1,30.00,WNW,302,5.0,6.0,84,0.00,,,0.41,171,Wunderground v.1.15,2016-12-07 16:11:00,
2016-12-07 11:16:00,64.1,58.8,29.99,NW,304,5.0,6.0,83,0.00,,,0.41,441,Wunderground v.1.15,2016-12-07 16:16:00,
2016-12-07 11:21:00,64.3,59.0,29.99,WNW,302,5.0,5.0,83,0.00,,,0.41,237,Wunderground v.1.15,2016-12-07 16:21:00,
2016-12-07 11:27:00,64.3,58.7,29.99,WNW,301,4.0,5.0,82,0.00,,,0.41,204,Wunderground v.1.15,2016-12-07 16:27:00,
2016-12-07 11:32:00,64.5,58.9,29.98,WNW,294,4.0,4.0,82,0.00,,,0.41,281,Wunderground v.1.15,2016-12-07 16:32:00,
2016-12-07 11:38:00,64.7,59.1,29.98,WNW,294,3.0,4.0,82,0.00,,,0.41,526,Wunderground v.1.15,2016-12-07 16:38:00,
2016-12-07 11:43:00,65.1,59.8,29.98,WNW,286,3.0,3.0,83,0.00,,,0.41,438,Wunderground v.1.15,2016-12-07 16:43:00,
2016-12-07 11:48:00,65.3,59.7,29.98,WNW,287,3.0,3.0,82,0.00,,,0.41,339,Wunderground v.1.15,2016-12-07 16:48:00,
2016-12-07 11:53:00,65.6,59.6,29.98,WNW,287,2.0,3.0,81,0.00,,,0.41,457,Wunderground v.1.15,2016-12-07 16:53:00,
2016-12-07 12:04:00,65.6,58.9,29.97,West,272,2.0,9.0,79,0.00,,,0.41,524,Wunderground v.1.15,2016-12-07 17:04:00,
2016-12-07 12:09:00,65.6,58.9,29.97,West,271,2.0,9.0,79,0.00,,,0.41,362,Wunderground v.1.15,2016-12-07 17:09:00,
2016-12-07 12:15:00,65.8,59.1,29.97,West,271,1.0,2.0,79,0.00,,,0.41,571,Wunderground v.1.15,2016-12-07 17:15:00,
2016-12-07 12:20:00,66.1,59.0,29.97,West,271,1.0,1.0,78,0.00,,,0.41,615,Wunderground v.1.15,2016-12-07 17:20:00,
2016-12-07 12:25:00,66.2,59.8,29.97,West,271,0.0,1.0,80,0.00,,,0.41,234,Wunderground v.1.15,2016-12-07 17:25:00,
2016-12-07 12:31:00,66.2,59.5,29.96,West,271,0.0,0.0,79,0.00,,,0.41,334,Wunderground v.1.15,2016-12-07 17:31:00,
2016-12-07 12:36:00,66.4,59.7,29.96,West,271,0.0,0.0,79,0.00,,,0.41,584,Wunderground v.1.15,2016-12-07 17:36:00,
2016-12-07 12:42:00,66.8,60.1,29.96,West,270,0.0,0.0,79,0.00,,,0.41,596,Wunderground v.1.15,2016-12-07 17:42:00,
2016-12-07 12:47:00,67.1,60.0,29.96,West,270,0.0,0.0,78,0.00,,,0.41,369,Wunderground v.1.15,2016-12-07 17:47:00,
2016-12-07 12:52:00,67.1,60.0,29.96,West,270,0.0,0.0,78,0.00,,,0.41,515,Wunderground v.1.15,2016-12-07 17:52:00,
2016-12-07 12:57:00,67.1,59.6,29.96,West,270,0.0,0.0,77,0.00,,,0.41,313,Wunderground v.1.15,2016-12-07 17:57:00,
2016-12-07 13:03:00,67.2,60.1,29.96,West,270,0.0,4.0,78,0.00,,,0.41,338,Wunderground v.1.15,2016-12-07 18:03:00,
2016-12-07 13:16:00,67.8,60.0,29.95,West,276,0.0,0.0,76,0.00,,,0.41,462,Wunderground v.1.15,2016-12-07 18:16:00,
2016-12-07 13:33:00,68.7,60.5,29.94,NW,317,0.0,0.0,75,0.00,,,0.41,524,Wunderground v.1.15,2016-12-07 18:33:00,
2016-12-07 13:39:00,68.8,60.2,29.94,WNW,296,0.0,0.0,74,0.00,,,0.41,413,Wunderground v.1.15,2016-12-07 18:39:00,
2016-12-07 13:44:00,68.9,60.3,29.94,WNW,292,0.0,3.0,74,0.00,,,0.41,520,Wunderground v.1.15,2016-12-07 18:44:00,
2016-12-07 13:49:00,69.3,60.7,29.94,WNW,292,1.0,3.0,74,0.00,,,0.41,464,Wunderground v.1.15,2016-12-07 18:49:00,
2016-12-07 13:55:00,69.4,60.8,29.94,WNW,292,2.0,3.0,74,0.00,,,0.41,501,Wunderground v.1.15,2016-12-07 18:55:00,
2016-12-07 14:05:00,69.4,60.8,29.94,WNW,297,2.0,3.0,74,0.00,,,0.41,510,Wunderground v.1.15,2016-12-07 19:05:00,
2016-12-07 14:11:00,69.5,60.1,29.94,WNW,297,2.0,2.0,72,0.00,,,0.41,515,Wunderground v.1.15,2016-12-07 19:11:00,
2016-12-07 14:16:00,69.6,60.6,29.94,WNW,294,1.0,2.0,73,0.00,,,0.41,434,Wunderground v.1.15,2016-12-07 19:16:00,
2016-12-07 14:21:00,69.9,61.2,29.94,WNW,298,2.0,3.0,74,0.00,,,0.41,466,Wunderground v.1.15,2016-12-07 19:21:00,
2016-12-07 14:26:00,70.0,60.2,29.94,WNW,299,2.0,3.0,71,0.00,,,0.41,385,Wunderground v.1.15,2016-12-07 19:26:00,
2016-12-07 14:32:00,70.2,61.1,29.94,WNW,299,2.0,2.0,73,0.00,,,0.41,455,Wunderground v.1.15,2016-12-07 19:32:00,
2016-12-07 14:38:00,70.5,61.0,29.94,West,269,2.0,3.0,72,0.00,,,0.41,408,Wunderground v.1.15,2016-12-07 19:38:00,
2016-12-07 14:48:00,70.8,61.3,29.94,West,273,2.0,2.0,72,0.00,,,0.41,406,Wunderground v.1.15,2016-12-07 19:48:00,
2016-12-07 14:57:00,70.6,61.1,29.94,NW,313,2.0,3.0,72,0.00,,,0.41,397,Wunderground v.1.15,2016-12-07 19:57:00,
2016-12-07 15:10:00,70.8,60.1,29.94,NW,315,2.0,2.0,69,0.00,,,0.41,355,Wunderground v.1.15,2016-12-07 20:10:00,
2016-12-07 15:46:00,71.3,59.8,29.95,West,279,1.0,2.0,67,0.00,,,0.41,137,Wunderground v.1.15,2016-12-07 20:46:00,
2016-12-07 16:17:00,71.1,62.0,29.95,West,279,0.0,0.0,73,0.00,,,0.41,107,Wunderground v.1.15,2016-12-07 21:17:00,
2016-12-07 16:22:00,71.0,59.9,29.95,West,279,0.0,0.0,68,0.00,,,0.41,58,Wunderground v.1.15,2016-12-07 21:22:00,
2016-12-07 16:27:00,70.2,61.9,29.95,West,279,0.0,0.0,75,0.00,,,0.41,49,Wunderground v.1.15,2016-12-07 21:27:00,
2016-12-07 16:33:00,69.2,61.3,29.95,West,279,0.0,0.0,76,0.00,,,0.41,100,Wunderground v.1.15,2016-12-07 21:33:00,
2016-12-07 16:39:00,68.6,61.5,29.95,West,279,0.0,0.0,78,0.00,,,0.41,88,Wunderground v.1.15,2016-12-07 21:39:00,
2016-12-07 16:44:00,68.2,61.8,29.95,West,279,0.0,0.0,80,0.00,,,0.41,47,Wunderground v.1.15,2016-12-07 21:44:00,
2016-12-07 16:49:00,67.7,62.0,29.95,West,279,0.0,0.0,82,0.00,,,0.41,51,Wunderground v.1.15,2016-12-07 21:49:00,
2016-12-07 16:54:00,67.5,61.8,29.95,West,279,0.0,0.0,82,0.00,,,0.41,35,Wunderground v.1.15,2016-12-07 21:54:00,
2016-12-07 17:00:00,67.1,61.4,29.96,West,279,0.0,0.0,82,0.00,,,0.41,28,Wunderground v.1.15,2016-12-07 22:00:00,
2016-12-07 17:05:00,66.8,61.5,29.96,West,279,0.0,2.0,83,0.00,,,0.41,21,Wunderground v.1.15,2016-12-07 22:05:00,
2016-12-07 17:11:00,66.5,61.5,29.96,West,279,0.0,0.0,84,0.00,,,0.41,16,Wunderground v.1.15,2016-12-07 22:11:00,
2016-12-07 17:16:00,66.3,61.7,29.96,West,279,0.0,0.0,85,0.00,,,0.41,11,Wunderground v.1.15,2016-12-07 22:16:00,
2016-12-07 17:22:00,66.0,61.4,29.96,West,279,0.0,0.0,85,0.00,,,0.41,7,Wunderground v.1.15,2016-12-07 22:22:00,
2016-12-07 17:27:00,65.7,61.4,29.96,West,279,0.0,0.0,86,0.00,,,0.41,0,Wunderground v.1.15,2016-12-07 22:27:00,
2016-12-07 17:33:00,65.4,61.1,29.97,West,279,0.0,0.0,86,0.00,,,0.41,0,Wunderground v.1.15,2016-12-07 22:33:00,
2016-12-07 17:38:00,65.1,61.1,29.97,West,279,0.0,0.0,87,0.00,,,0.41,0,Wunderground v.1.15,2016-12-07 22:38:00,
2016-12-07 17:44:00,64.7,61.1,29.97,West,279,0.0,0.0,88,0.00,,,0.41,0,Wunderground v.1.15,2016-12-07 22:44:00,
2016-12-07 17:49:00,64.6,61.3,29.97,West,279,0.0,0.0,89,0.00,,,0.41,0,Wunderground v.1.15,2016-12-07 22:49:00,
2016-12-07 17:54:00,64.5,61.2,29.97,West,279,0.0,0.0,89,0.00,,,0.41,0,Wunderground v.1.15,2016-12-07 22:54:00,
2016-12-07 17:59:00,64.3,61.3,29.97,West,279,0.0,0.0,90,0.00,,,0.41,0,Wunderground v.1.15,2016-12-07 22:59:00,
2016-12-07 18:05:00,64.1,61.1,29.98,West,279,0.0,0.0,90,0.00,,,0.41,0,Wunderground v.1.15,2016-12-07 23:05:00,
2016-12-07 18:11:00,63.9,60.9,29.98,West,279,0.0,0.0,90,0.00,,,0.41,0,Wunderground v.1.15,2016-12-07 23:11:00,
2016-12-07 18:16:00,63.7,61.0,29.98,West,279,0.0,0.0,91,0.00,,,0.41,0,Wunderground v.1.15,2016-12-07 23:16:00,
2016-12-07 18:22:00,63.5,60.8,29.98,West,279,0.0,0.0,91,0.00,,,0.41,0,Wunderground v.1.15,2016-12-07 23:22:00,
2016-12-07 18:27:00,63.3,60.6,29.98,West,279,0.0,0.0,91,0.00,,,0.41,0,Wunderground v.1.15,2016-12-07 23:27:00,
2016-12-07 18:33:00,63.1,60.7,29.99,West,279,0.0,0.0,92,0.00,,,0.41,0,Wunderground v.1.15,2016-12-07 23:33:00,
2016-12-07 18:38:00,62.9,60.5,29.99,West,279,0.0,0.0,92,0.00,,,0.41,0,Wunderground v.1.15,2016-12-07 23:38:00,
2016-12-07 18:43:00,62.8,60.4,29.99,West,279,0.0,0.0,92,0.00,,,0.41,0,Wunderground v.1.15,2016-12-07 23:43:00,
2016-12-07 18:48:00,62.7,60.3,29.99,West,279,0.0,0.0,92,0.00,,,0.41,0,Wunderground v.1.15,2016-12-07 23:48:00,
2016-12-07 18:54:00,62.5,60.4,29.99,West,279,0.0,0.0,93,0.00,,,0.41,0,Wunderground v.1.15,2016-12-07 23:54:00,
2016-12-07 18:59:00,62.4,60.3,29.99,West,279,0.0,0.0,93,0.00,,,0.41,0,Wunderground v.1.15,2016-12-07 23:59:00,
2016-12-07 19:05:00,62.3,60.2,29.99,West,279,0.0,0.0,93,0.00,,,0.41,0,Wunderground v.1.15,2016-12-08 00:05:00,
2016-12-07 19:11:00,62.2,60.2,29.99,West,279,0.0,0.0,93,0.00,,,0.41,0,Wunderground v.1.15,2016-12-08 00:11:00,
2016-12-07 19:16:00,62.0,60.0,30.00,West,279,0.0,0.0,93,0.00,,,0.41,0,Wunderground v.1.15,2016-12-08 00:16:00,
2016-12-07 19:22:00,61.9,59.9,30.00,West,279,0.0,0.0,93,0.00,,,0.41,0,Wunderground v.1.15,2016-12-08 00:22:00,
2016-12-07 19:27:00,61.8,59.8,30.00,West,279,0.0,0.0,93,0.00,,,0.41,0,Wunderground v.1.15,2016-12-08 00:27:00,
2016-12-07 19:32:00,61.6,59.6,30.00,West,279,0.0,0.0,93,0.00,,,0.41,0,Wunderground v.1.15,2016-12-08 00:32:00,
2016-12-07 19:37:00,61.5,59.5,30.00,West,279,0.0,0.0,93,0.00,,,0.41,0,Wunderground v.1.15,2016-12-08 00:37:00,
2016-12-07 19:43:00,61.4,59.4,30.00,West,279,0.0,0.0,93,0.00,,,0.41,0,Wunderground v.1.15,2016-12-08 00:43:00,
2016-12-07 19:48:00,61.3,59.3,30.00,West,279,0.0,0.0,93,0.00,,,0.41,0,Wunderground v.1.15,2016-12-08 00:48:00,
2016-12-07 19:53:00,61.2,59.2,30.00,West,279,0.0,0.0,93,0.00,,,0.41,0,Wunderground v.1.15,2016-12-08 00:53:00,
2016-12-07 19:59:00,61.0,59.3,30.00,West,279,0.0,0.0,94,0.00,,,0.41,0,Wunderground v.1.15,2016-12-08 00:59:00,
2016-12-07 20:05:00,60.9,59.2,30.00,West,279,0.0,0.0,94,0.00,,,0.41,0,Wunderground v.1.15,2016-12-08 01:05:00,
2016-12-07 20:11:00,60.7,59.0,30.00,West,279,0.0,0.0,94,0.00,,,0.41,0,Wunderground v.1.15,2016-12-08 01:11:00,
2016-12-07 20:16:00,60.6,58.9,30.00,West,279,1.0,3.0,94,0.00,,,0.41,0,Wunderground v.1.15,2016-12-08 01:16:00,
2016-12-07 20:21:00,60.3,58.3,30.00,West,279,2.0,2.0,93,0.00,,,0.41,0,Wunderground v.1.15,2016-12-08 01:21:00,
2016-12-07 20:26:00,60.0,58.3,30.00,West,279,2.0,2.0,94,0.00,,,0.41,0,Wunderground v.1.15,2016-12-08 01:26:00,
2016-12-07 20:32:00,59.9,58.2,30.00,West,279,2.0,3.0,94,0.00,,,0.41,0,Wunderground v.1.15,2016-12-08 01:32:00,
2016-12-07 20:37:00,59.9,58.2,30.00,West,279,2.0,3.0,94,0.00,,,0.41,0,Wunderground v.1.15,2016-12-08 01:37:00,
2016-12-07 20:42:00,59.8,58.1,30.00,West,280,3.0,3.0,94,0.00,,,0.41,0,Wunderground v.1.15,2016-12-08 01:42:00,
2016-12-07 20:47:00,59.7,58.0,30.00,WNW,285,3.0,3.0,94,0.00,,,0.41,0,Wunderground v.1.15,2016-12-08 01:47:00,
2016-12-07 20:52:00,59.6,57.9,30.00,ENE,78,2.0,3.0,94,0.00,,,0.41,0,Wunderground v.1.15,2016-12-08 01:52:00,
2016-12-07 20:57:00,59.5,57.8,30.00,East,93,2.0,3.0,94,0.00,,,0.41,0,Wunderground v.1.15,2016-12-08 01:57:00,
2016-12-07 21:03:00,59.5,57.8,30.00,East,80,2.0,2.0,94,0.00,,,0.41,0,Wunderground v.1.15,2016-12-08 02:03:00,
2016-12-07 21:09:00,59.4,57.7,30.00,East,93,2.0,3.0,94,0.00,,,0.41,0,Wunderground v.1.15,2016-12-08 02:09:00,
2016-12-07 21:14:00,59.3,57.6,30.00,East,93,3.0,3.0,94,0.00,,,0.41,0,Wunderground v.1.15,2016-12-08 02:14:00,
2016-12-07 21:19:00,59.1,57.4,30.00,East,93,3.0,3.0,94,0.00,,,0.41,0,Wunderground v.1.15,2016-12-08 02:19:00,
2016-12-07 21:25:00,59.0,57.3,30.00,East,93,2.0,2.0,94,0.00,,,0.41,0,Wunderground v.1.15,2016-12-08 02:25:00,
2016-12-07 21:30:00,58.9,57.2,30.01,East,93,2.0,2.0,94,0.00,,,0.41,0,Wunderground v.1.15,2016-12-08 02:30:00,
2016-12-07 21:35:00,58.7,57.0,30.01,East,93,2.0,2.0,94,0.00,,,0.41,0,Wunderground v.1.15,2016-12-08 02:35:00,
2016-12-07 21:40:00,58.6,56.9,30.01,East,93,2.0,3.0,94,0.00,,,0.41,0,Wunderground v.1.15,2016-12-08 02:40:00,
2016-12-07 21:46:00,58.6,56.9,30.01,East,93,2.0,3.0,94,0.00,,,0.41,0,Wunderground v.1.15,2016-12-08 02:46:00,
2016-12-07 21:51:00,58.6,56.9,30.01,East,93,2.0,2.0,94,0.00,,,0.41,0,Wunderground v.1.15,2016-12-08 02:51:00,
2016-12-07 21:56:00,58.4,56.7,30.01,East,93,2.0,3.0,94,0.00,,,0.41,0,Wunderground v.1.15,2016-12-08 02:56:00,
2016-12-07 22:01:00,58.3,56.6,30.02,East,93,2.0,4.0,94,0.00,,,0.41,0,Wunderground v.1.15,2016-12-08 03:01:00,
2016-12-07 22:07:00,58.2,56.8,30.02,East,93,2.0,4.0,95,0.00,,,0.41,0,Wunderground v.1.15,2016-12-08 03:07:00,